Location: Cluj-Napoca
(46.7712°N, 23.6236°E)
Time: 04:39:08
(UTC+03:00)

ISS - Pass Details

Date: 10 July 2020
Orbit: 417 x 421 km, 51.6° (Epoch: 08 July)

Event Time Altitude Azimuth Distance (km) Brightness Sun altitude
Rises 04:26:21 0° 289° (WNW) 2,363 -0.2 -10.5°
Reaches altitude 10° 04:28:33 10° 298° (WNW) 1,499 -1.1 -10.2°
Maximum altitude 04:31:42 37° 8° (N) 675 -2.1 -9.9°
Drops below altitude 10° 04:34:51 10° 78° (ENE) 1,497 0.0 -9.5°
Sets 04:37:03 0° 87° (E) 2,360 0.8 -9.3°
